Regional Weather Roundup
Issued by NWS Cleveland, OH

Home | Current Version | Previous Version | Graphics & Text | Print | Product List | Glossary On
Versions: 1 2 3 4 5 6 7 8 9 10 11 12 13 14 15 16 17 18 19 20 21 22 23 24 25 26 27 28 29 30 31 32 33 34 35 36 37 38 39 40 41 42 43 44 45 46 47 48 49 50
000
ASUS41 KCLE 230500
RWRCLE
OHIO REGIONAL WEATHER ROUNDUP
NATIONAL WEATHER SERVICE WILMINGTON, OH
100 AM EDT SUN APR 23 2017

NOTE: "FAIR" INDICATES FEW OR NO CLOUDS BELOW 12,000 FEET WITH NO
SIGNIFICANT WEATHER AND/OR OBSTRUCTIONS TO VISIBILITY.

OHZ001>008-015>018-024>027-034-035-043-044-230600-
   NORTHWEST OHIO

CITY           SKY/WX    TMP DP  RH WIND       PRES   REMARKS
DEFIANCE       FAIR      41  35  79 N5        30.15R
FINDLAY        FAIR      44  33  65 NE6       30.12S
TOLEDO EXPRESS FAIR      41  36  82 CALM      30.14S
TOLEDO EXEC    FAIR      43  35  73 N3        30.15S
LIMA           FAIR      41  34  76 E6        30.12R
$$

OHZ009>014-019>023-028>033-038-089-230600-
   NORTHEAST OHIO

CITY           SKY/WX    TMP DP  RH WIND       PRES   REMARKS
CLE-HOPKINS    FAIR      43  36  76 CALM      30.16R
CLE-LAKEFRONT  FAIR      47  37  68 NE7       30.14R
CUY CO. ARPT   NOT AVBL
LORAIN-ELYRIA  FAIR      40  34  79 NE3       30.14R
ASHTABULA      FAIR      38  37  97 CALM      30.14R
AKRON-CANTON   FAIR      40  33  76 N9        30.11S
WOOSTER        NOT AVBL
MANSFIELD      FAIR      40  34  79 N6        30.12R
YOUNGSTOWN     FAIR      40  33  76 N5        30.12R
$$

OHZ042-051>053-060>062-070>072-077>081-230600-
  SOUTHWEST OHIO

CITY           SKY/WX    TMP DP  RH WIND       PRES   REMARKS
CINC-COVINGTON FAIR      47  35  63 NE14      30.06S
CINC-LUNKEN    FAIR      45  37  73 NE8       30.08F
HAMILTON       FAIR      46  36  68 NE8       30.09S
DAYTON         NOT AVBL
WRIGHT-PAT AFB FAIR      41  35  79 N5        30.09S
DAYTON GENERAL FAIR      42  35  76 NE8       30.07S
WILMINGTON     FAIR      41  36  82 NE12      30.06S
$$

OHZ036-037-039>041-045>050-054>059-063>069-073>076-082>088-230600-
  CENTRAL AND SOUTHEAST OHIO

CITY           SKY/WX    TMP DP  RH WIND       PRES   REMARKS
COLUMBUS       FAIR      42  35  76 N8        30.09R
OSU AIRPORT    FAIR      39  34  82 N8        30.09S
BOLTON FIELD   NOT AVBL
RICKENBACK AFB NOT AVBL
NEWARK         FAIR      43  34  70 N3        30.09R
MARION         FAIR      40  33  76 NE6       30.12S
LANCASTER      FAIR      43  35  73 N6        30.08S
ZANESVILLE     FAIR      45  34  65 N3        30.08S
NEW PHILLY     FAIR      44  35  70 N5        30.11S
$$




USA.gov is the U.S. government's official web portal to all federal, state and local government web resources and services.